Location: Albany
(35.0000°S, 118.0000°E)
Time: 08:47:20
(UTC-04:00)

Tiangong - Pass Details

Date: 01 October 2021
Orbit: 382 x 385 km, 41.5° (Epoch: 16 October)

Event Time Altitude Azimuth Distance (km) Brightness Sun altitude
Rises 06:47:23 0° 243° (WSW) 2,288 6.7 -8.2°
Reaches altitude 10° 06:49:32 10° 237° (WSW) 1,431 5.2 -8.6°
Maximum altitude 06:52:39 45° 162° (SSE) 547 1.8 -9.3°
Enters shadow 06:55:11 14° 90° (E) 1,203 2.9 -9.8°
